sat.trackr.live / text

‹ back to catalog

STARLINK-36570

NORAD 67640 · 2026-020Z

PAYLOAD ACTIVE UNKNOWN

§ Identity

Operator
Country
US
Launch date
2026-01-30
Launch site
AFETR
Launch vehicle
Mass (kg)
RCS (m²)

Purposes: comms

External: N2YO · Heavens-Above · Gunter

§ Orbital elements

Epoch: 2026-05-25T02:39:43.900992Z

Period
94.27 min
Inclination
43.0053°
Eccentricity
0.0001251
Mean motion
15.27597101 rev/d
Perigee alt
482.1 km
Apogee alt
483.9 km
Semi-major
6,861.1 km
B*
5.4548e-4
RAAN
67.9804°
Arg perigee
266.9457°
Mean anomaly
93.1252°
Rev number
1,780

§ Raw data

STARLINK-365701 67640U 26020Z   26145.11092478  .00014786  00000+0  54548-3 0  99972 67640  43.0053  67.9804 0001251 266.9457  93.1252 15.27597101 17808

JSON: /api/v1/satellites/67640 · /tle

For live sub-satellite position, see the globe view (requires WebGL).

§ Visibility from observer

Set your observer location to see the next 7 days of passes ≥ 10°. The values pass through the URL so the page stays shareable.

No JS? Fill the form by hand. The geolocation button needs JavaScript.